Coolangatta Observation History
Time Wind Speed Temp Pressure Rel. Hum Rain
26/05:00pm NNE 7-10 kts 19.6°c 1017.7 hPa 67% 0.0mm
26/04:30pm NE 7-9 kts 20.7°c 1017.4 hPa 56% 0.0mm
26/04:00pm NE 8-10 kts 21.3°c 1017.3 hPa 56% 0.0mm
26/03:30pm NE 7-9 kts 21.2°c 1017.2 hPa 51% 0.0mm
26/03:00pm ENE 9-11 kts 21.6°c 1016.8 hPa 53% 0.0mm
26/02:30pm ENE 7-9 kts 20.3°c 1016.9 hPa 57% 0.0mm
26/02:00pm ENE 8-10 kts 20.5°c 1017.0 hPa 58% 0.0mm
26/01:30pm NE 9-10 kts 21.0°c 1017.4 hPa 46% 0.0mm
26/01:00pm ENE 10-12 kts 22.5°c 1017.6 hPa 47% 0.0mm
26/12:30pm NE 9-11 kts 22.9°c 1017.9 hPa 46% 0.0mm
26/12:00pm E 8-10 kts 22.7°c 1018.3 hPa 40% 0.0mm
26/11:30am ENE 8-11 kts 22.5°c 1018.8 hPa 43% 0.0mm
26/11:00am NE 8-10 kts 22.8°c 1019.1 hPa 37% 0.0mm
26/10:30am E 4-7 kts 23.2°c 1019.3 hPa 40% 0.0mm
26/10:00am NE 7-9 kts 21.1°c 1019.5 hPa 48% 0.0mm
26/09:30am NE 6-7 kts 21.1°c 1019.6 hPa 48% 0.0mm
26/09:00am SE 4-6 kts 20.5°c 1019.8 hPa 47% 0.0mm
26/08:30am SSE 3-5 kts 18.7°c 1019.8 hPa 52% 0.0mm
26/08:00am SSE 3-5 kts 17.4°c 1019.7 hPa 61% 0.0mm
26/07:30am WSW 1-4 kts 15.3°c 1019.4 hPa 77% 0.0mm
26/07:00am CALM 0 kts 12.5°c 1019.2 hPa 88% 0.0mm
26/06:30am W 1-3 kts 10.9°c 1018.8 hPa 91% 0.0mm
26/06:00am W 3-4 kts 10.7°c 1018.4 hPa 88% 0.0mm
26/05:30am CALM 0 kts 11.4°c 1017.9 hPa 85% 0.0mm
26/05:00am NW 4-5 kts 12.9°c 1017.5 hPa 83% 0.0mm
26/04:30am N 5-7 kts 13.2°c 1017.3 hPa 78% 0.0mm
26/04:00am NNW 4-6 kts 14.4°c 1017.2 hPa 73% 0.0mm
26/03:30am NNW 6 kts 14.1°c 1017.1 hPa 75% 0.0mm
26/03:00am WNW 5-8 kts 15.7°c 1017.3 hPa 72% 0.0mm
26/02:30am NW 6-7 kts 15.5°c 1017.1 hPa 68% 0.0mm
26/02:00am NW 7-8 kts 15.8°c 1017.5 hPa 65% 0.0mm
26/01:30am NW 6-8 kts 15.9°c 1017.6 hPa 68% 0.0mm
26/01:00am NW 6-8 kts 15.9°c 1017.9 hPa 73% 0.0mm
26/12:30am NW 7-9 kts 15.6°c 1017.8 hPa 73% 0.0mm
26/12:00am NW 6-8 kts 15.7°c 1018.2 hPa 74% 0.0mm
Time Wind Speed Temp Pressure Rel. Hum Rain
25/11:30pm NW 6-7 kts 15.4°c 1018.3 hPa 73% 0.0mm
25/11:00pm NW 6-8 kts 15.4°c 1018.5 hPa 74% 0.0mm
25/10:30pm NW 6-7 kts 15.4°c 1018.3 hPa 74% 0.0mm
25/10:00pm NW 6-7 kts 15.4°c 1018.5 hPa 73% 0.0mm
25/09:30pm NW 4-6 kts 15.8°c 1018.6 hPa 71% 0.0mm
25/09:00pm WNW 6-8 kts 16.4°c 1018.5 hPa 72% 0.0mm
25/08:30pm NW 6-10 kts 17.5°c 1018.4 hPa 67% 0.0mm
25/08:00pm NNW 9-11 kts 18.4°c 1018.3 hPa 73% 0.0mm
25/07:30pm NNW 9-13 kts 18.4°c 1018.2 hPa 73% 0.0mm
25/07:00pm N 11-14 kts 18.7°c 1018.0 hPa 72% 0.0mm
25/06:30pm N 10-14 kts 18.9°c 1017.8 hPa 71% 0.0mm
25/06:00pm N 9-11 kts 19.2°c 1017.5 hPa 68% 0.0mm
25/05:30pm N 11-15 kts 19.4°c 1017.1 hPa 68% 0.0mm
25/05:00pm N 11-13 kts 20.1°c 1016.8 hPa 67% 0.0mm
25/04:30pm N 12-15 kts 20.7°c 1016.4 hPa 65% 0.0mm
25/04:00pm N 12-16 kts 21.1°c 1016.4 hPa 63% 0.0mm
25/03:30pm N 13-17 kts 21.5°c 1016.3 hPa 62% 0.0mm
25/03:00pm N 15-19 kts 21.8°c 1016.3 hPa 56% 0.0mm
25/02:30pm N 17-20 kts 22.3°c 1016.4 hPa 53% 0.0mm
25/02:00pm N 17-21 kts 22.4°c 1016.4 hPa 55% 0.0mm
25/01:30pm N 17-21 kts 22.6°c 1016.6 hPa 54% 0.0mm
25/01:00pm N 16-21 kts 22.9°c 1017.0 hPa 53% 0.0mm
25/12:30pm N 14-18 kts 22.4°c 1017.7 hPa 52% 0.0mm
25/12:00pm N 14-18 kts 23.7°c 1018.1 hPa 47% 0.0mm
25/11:30am N 14-19 kts 23.1°c 1018.6 hPa 49% 0.0mm
25/11:00am NNW 11-15 kts 22.9°c 1019.2 hPa 44% 0.0mm
25/10:30am NNW 11-16 kts 22.1°c 1019.7 hPa 45% 0.0mm
25/10:00am NNW 12-16 kts 22.2°c 1020.1 hPa 47% 0.0mm
25/09:30am NW 12-17 kts 21.0°c 1020.2 hPa 49% 0.0mm
25/09:00am NNW 10-14 kts 20.1°c 1020.4 hPa 51% 0.0mm
25/08:30am NW 10-14 kts 19.0°c 1020.6 hPa 54% 0.0mm
25/08:00am NW 9-14 kts 18.0°c 1020.7 hPa 58% 0.0mm
25/07:30am NW 7-10 kts 17.1°c 1020.4 hPa 60% 0.0mm
25/07:00am NW 6-7 kts 15.8°c 1020.0 hPa 65% 0.0mm
25/06:30am NW 5-8 kts 14.8°c 1020.0 hPa 69% 0.0mm
25/06:00am NNW 4-5 kts 14.2°c 1019.9 hPa 71% 0.0mm
25/05:30am NW 3-5 kts 14.4°c 1019.7 hPa 71% 0.0mm
25/05:00am NW 7-10 kts 15.2°c 1019.6 hPa 70% 0.0mm
25/04:30am NW 7-12 kts 15.1°c 1019.6 hPa 72% 0.0mm
25/04:00am NW 7-10 kts 15.0°c 1019.5 hPa 73% 0.0mm
25/03:30am NW 8-11 kts 15.0°c 1019.5 hPa 73% 0.0mm
25/03:00am NW 9-11 kts 15.0°c 1019.7 hPa 72% 0.0mm
25/02:30am NW 7-9 kts 14.3°c 1019.9 hPa 74% 0.0mm
25/02:00am NW 6-8 kts 14.8°c 1020.1 hPa 70% 0.0mm
25/01:30am NW 5-7 kts 14.5°c 1020.5 hPa 68% 0.0mm
25/01:00am WNW 7-9 kts 15.0°c 1020.8 hPa 65% 0.0mm
25/12:30am NW 6-9 kts 14.7°c 1020.8 hPa 66% 0.0mm
25/12:00am NW 7-9 kts 14.6°c 1021.1 hPa 68% 0.0mm
Time Wind Speed Temp Pressure Rel. Hum Rain
24/11:30pm NW 5-8 kts 14.4°c 1021.2 hPa 70% 0.0mm
24/11:00pm WNW 7-10 kts 15.1°c 1021.3 hPa 68% 0.0mm
24/10:30pm WNW 7-10 kts 14.8°c 1021.6 hPa 67% 0.0mm
24/10:00pm WNW 7-9 kts 14.6°c 1021.6 hPa 68% 0.0mm
24/09:30pm NW 8-9 kts 14.9°c 1021.7 hPa 67% 0.0mm
24/09:00pm WNW 7-9 kts 14.9°c 1021.9 hPa 68% 0.0mm
24/08:30pm NW 6-7 kts 14.8°c 1021.9 hPa 68% 0.0mm
24/08:00pm NW 7-9 kts 15.9°c 1021.8 hPa 64% 0.0mm
24/07:30pm N 11-15 kts 17.6°c 1021.7 hPa 60% 0.0mm
24/07:00pm N 11-14 kts 17.6°c 1021.8 hPa 64% 0.0mm
24/06:30pm N 12-15 kts 17.8°c 1021.5 hPa 59% 0.0mm
24/06:00pm N 13-17 kts 18.2°c 1021.2 hPa 60% 0.0mm
24/05:30pm N 15-18 kts 18.2°c 1021.1 hPa 58% 0.0mm
24/05:00pm N 15-19 kts 18.7°c 1021.1 hPa 55% 0.0mm
24/04:30pm N 14-18 kts 19.2°c 1020.9 hPa 54% 0.0mm
24/04:00pm N 15-17 kts 19.6°c 1020.8 hPa 51% 0.0mm
24/03:30pm N 13-17 kts 19.9°c 1020.9 hPa 50% 0.0mm
24/03:00pm NNE 12-15 kts 20.2°c 1021.0 hPa 48% 0.0mm
24/02:30pm N 13-16 kts 20.1°c 1021.2 hPa 47% 0.0mm
24/02:00pm NNE 12-15 kts 21.3°c 1021.6 hPa 48% 0.0mm
24/01:30pm NNE 12-15 kts 21.0°c 1022.0 hPa 48% 0.0mm
24/01:00pm NNE 10-13 kts 20.4°c 1022.3 hPa 50% 0.0mm
24/12:30pm NNE 10-13 kts 20.5°c 1023.0 hPa 50% 0.0mm
24/12:00pm NNE 9-11 kts 20.5°c 1023.6 hPa 49% 0.0mm
24/11:30am NNE 8-11 kts 19.7°c 1024.1 hPa 50% 0.0mm
24/11:00am NNE 7-9 kts 20.2°c 1024.5 hPa 49% 0.0mm
24/10:30am NNE 6-8 kts 20.2°c 1024.8 hPa 44% 0.0mm
24/10:00am NE 6-8 kts 19.6°c 1025.1 hPa 47% 0.0mm
24/09:30am NE 5-8 kts 19.4°c 1025.2 hPa 49% 0.0mm
24/09:00am SE 4-6 kts 18.6°c 1025.4 hPa 57% 0.0mm
24/08:30am S 4-7 kts 17.6°c 1025.5 hPa 65% 0.0mm
24/08:00am S 2-4 kts 15.3°c 1025.5 hPa 78% 0.0mm
24/07:30am SSW 2-3 kts 12.6°c 1025.3 hPa 91% 0.0mm
24/07:00am CALM 0-4 kts 10.0°c 1025.0 hPa 95% 0.0mm
24/06:35am S 3-4 kts 8.9°c 1025.0 hPa 96% 0.0mm
24/06:30am S 3-4 kts 8.7°c 1025.0 hPa 95% 0.0mm
24/06:16am S 3-4 kts 8.2°c 1024.9 hPa 94% 0.0mm
24/06:00am SSW 3 kts 8.3°c 1024.9 hPa 95% 0.0mm
24/05:30am SSW 3-4 kts 8.4°c 1024.7 hPa 94% 0.0mm
24/05:00am CALM 0 kts 8.6°c 1024.5 hPa 94% 0.0mm
24/04:30am CALM 0 kts 8.7°c 1024.2 hPa 95% 0.0mm
24/04:00am CALM 0-3 kts 8.5°c 1024.1 hPa 94% 0.0mm
24/03:30am CALM 0 kts 8.2°c 1024.0 hPa 94% 0.0mm
24/03:00am CALM 0 kts 7.9°c 1024.0 hPa 93% 0.0mm
24/02:30am CALM 0-2 kts 8.5°c 1024.1 hPa 95% 0.0mm
24/02:00am SSW 3-4 kts 7.9°c 1024.4 hPa 93% 0.0mm
24/01:30am SW 2-3 kts 8.2°c 1024.5 hPa 91% 0.0mm
24/01:00am SW 2-3 kts 9.3°c 1024.8 hPa 91% 0.0mm
24/12:30am SW 3-4 kts 9.2°c 1024.9 hPa 87% 0.0mm
24/12:00am SW 4-5 kts 10.3°c 1025.1 hPa 87% 0.0mm